[[{"header":{"parameterUnit":"m.s-1","parameterCategory":2,"la1":30.2991,"la2":30.254,"lo1":-89.0895,"lo2":-89.0444,"dy":0.0017,"dx":0.0017,"nx":28,"ny":28,"refTime":"2025-03-18T03:00:00:Z","depth":"0","parameterNumber":2,"parameterNumberName":"U-component_of_CURRENTS"},"data":[0,0,0,0,0,0,0,0,0,0,0,0,0,0,0,0,0,0,0,0,0,0,0,0,0,0,0,0,0,0,0,0,0,0,0,0,0,0,0,0,0,0,0,0,0,0,0,0,0,0,0,0,0,0,0,0,0,0,0.2248,0.2248,0,0.2208,0.2208,0.2207,0.2182,0.2182,0.2182,0.2182,0.216,0.2159,0.2158,0,0,0,0,0,0,0,0,0,0,0,0,0,0.23,0.2299,0.2248,0.2248,0.2248,0.2208,0.2208,0.2207,0.2182,0.2182,0.2182,0.2182,0.216,0.2159,0.2158,0,0,0,0,0,0,0,0,0,0,0,0,0,0.2269,0.2299,0.2249,0.2232,0.223,0.2209,0.2208,0.2207,0.2182,0.2182,0.2182,0.2182,0.216,0.2159,0.2158,0.2152,0,0,0.2155,0.2155,0,0,0,0,0,0,0,0,0.2271,0.2267,0.2235,0.2233,0.2231,0.2202,0.2217,0.219,0.2182,0.2199,0.2182,0.2182,0.2176,0.2174,0.2164,0.2151,0.215,0.2155,0.2155,0.2154,0.2154,0,0,0,0,0,0,0,0.2273,0.2269,0.2231,0.2234,0.2232,0.2225,0.2221,0.2212,0.2187,0.2197,0.2196,0.2194,0.2175,0.2165,0.2163,0.215,0.2155,0.2155,0.2154,0.2154,0.2167,0.2167,0,0,0,0,0,0,0.2281,0.2271,0.2232,0.223,0.2253,0.2224,0.2219,0.221,0.2187,0.2184,0.2194,0.2193,0.2167,0.2164,0.2163,0.2185,0.2154,0.2154,0.2153,0.2166,0.2167,0.2168,0,0,0,0,0,0,0.2282,0.2278,0.2234,0.2251,0.2245,0.2224,0.2213,0.2209,0.22,0.2184,0.2181,0.219,0.2166,0.2164,0.2151,0.2183,0.2153,0.2152,0.2165,0.2166,0.2167,0.221,0,0,0,0,0,0,0.2284,0.2278,0.2275,0.2251,0.2245,0.2224,0.2213,0.2208,0.2199,0.2198,0.218,0.2177,0.2166,0.2153,0.215,0.2181,0.2152,0.2164,0.2165,0.2167,0.2208,0.2213,0.2217,0,0,0,0,0,0.2285,0.2282,0.2275,0.2271,0.2241,0.2224,0.222,0.2204,0.2199,0.2195,0.218,0.2178,0.2163,0.2152,0.2149,0.218,0.2163,0.2165,0.2167,0.2205,0.2212,0.2217,0,0,0,0,0,0,0.23,0.2278,0.2271,0.226,0.2245,0.222,0.2216,0.2206,0.219,0.2189,0.2174,0.217,0.2176,0.2168,0.2156,0.219,0.2169,0.2171,0.22,0.2205,0.221,0.2286,0.2151,0,0,0,0,0,0.2303,0.2295,0.2274,0.2265,0.2259,0.2239,0.2231,0.222,0.2203,0.2195,0.2181,0.2176,0.2183,0.2183,0.2178,0.2187,0.2225,0.221,0.2215,0.2219,0.228,0.2364,0.2384,0.2174,0.2174,0.2174,0,0,0.2309,0.2294,0.2291,0.2269,0.2255,0.2246,0.2233,0.2222,0.2221,0.2196,0.2188,0.2186,0.2187,0.2199,0.2203,0.2195,0.2286,0.2222,0.2225,0.2286,0.2369,0.239,0.2408,0.2176,0.2176,0.2175,0,0,0.231,0.2301,0.2293,0.2283,0.2266,0.2254,0.2253,0.2229,0.2227,0.2212,0.2212,0.2247,0.2209,0.2255,0.2265,0.23,0.2305,0.2273,0.2364,0.2443,0.2462,0.248,0.2503,0.2522,0.2279,0.2279,0.2279,0,0.232,0.2303,0.2289,0.2279,0.2282,0.226,0.2261,0.2251,0.2227,0.2259,0.2213,0.2264,0.2259,0.2343,0.2355,0.232,0.2335,0.2336,0.2453,0.2472,0.2489,0.2509,0.2531,0.2282,0.2281,0.2281,0.2281,0,0.2311,0.2304,0.23,0.2284,0.2285,0.2281,0.2274,0.2282,0.2273,0.2286,0.2349,0.235,0.2406,0.2396,0.2383,0.251,0.2466,0.2444,0.2445,0.2514,0.2528,0.255,0.2285,0.2284,0.2283,0.2283,0,0,0.2308,0.23,0.2297,0.2307,0.2294,0.2298,0.2316,0.2353,0.2406,0.2395,0.248,0.2514,0.2551,0.2572,0.2572,0.2646,0.2754,0.2601,0.2603,0.2636,0.2887,0.2748,0.2757,0.2738,0.2743,0.2747,0.2829,0,0.2305,0.2303,0.2302,0.2316,0.2317,0.2337,0.2371,0.2411,0.2436,0.2505,0.2568,0.2627,0.2601,0.2637,0.2716,0.2754,0.2821,0.2733,0.2809,0.2812,0.2691,0.2783,0.2641,0.2694,0.285,0.2853,0.2856,0,0.2283,0.2291,0.2304,0.2359,0.2369,0.2385,0.2476,0.2505,0.261,0.2643,0.2741,0.2763,0.2898,0.2839,0.2991,0.2924,0.2934,0.2947,0.2949,0.2842,0.2716,0.266,0.2727,0.2678,0.2889,0.2886,0.2884,0,0.2273,0.2297,0.2317,0.2325,0.2376,0.242,0.2466,0.2559,0.2617,0.2746,0.2799,0.2938,0.2995,0.3075,0.3091,0.3052,0.3221,0.3162,0.3049,0.3036,0.2951,0.2922,0.3004,0.329,0.329,0.329,0.329,0,0.2256,0.227,0.232,0.2325,0.2399,0.2439,0.2538,0.2606,0.272,0.2801,0.288,0.2952,0.3058,0.3133,0.3155,0.3168,0.3276,0.3114,0.3079,0.2949,0.292,0.29,0.2843,0.3293,0.3292,0.3292,0.3291,0,0.2219,0.224,0.2276,0.2352,0.2382,0.2439,0.2556,0.2626,0.2734,0.2838,0.288,0.2998,0.3081,0.3148,0.3261,0.322,0.3144,0.323,0.3038,0.2978,0.2787,0.2735,0.2584,0.2532,0.3135,0.3133,0.313,0,0.2193,0.2204,0.229,0.2323,0.2353,0.2443,0.25,0.262,0.2678,0.2843,0.2878,0.2992,0.3025,0.3128,0.3105,0.3123,0.3046,0.2987,0.2907,0.2804,0.2724,0.2521,0.2478,0.2792,0.2787,0.2784,0.2781,0,0.2165,0.22,0.2246,0.2311,0.2365,0.2422,0.2503,0.2546,0.2673,0.2749,0.2833,0.2878,0.2937,0.2882,0.2884,0.2878,0.2795,0.2902,0.2888,0.2558,0.2259,0.218,0.2674,0.2746,0.275,0.2752,0.2754,0.2755,0.2159,0.2199,0.2262,0.2321,0.2358,0.2368,0.2382,0.2445,0.2507,0.2556,0.2682,0.267,0.2702,0.2663,0.2654,0.2546,0.2498,0.2466,0.2439,0.2266,0.2137,0.2518,0.2482,0.2483,0.2485,0.2486,0.2488,0,0.2158,0.2207,0.2264,0.2307,0.2292,0.233,0.2352,0.2326,0.232,0.2364,0.2398,0.2377,0.231,0.2341,0.2279,0.2153,0.2021,0.208,0.1844,0.1854,0.2308,0.222,0.2012,0.2012,0.2012,0.2012,0.2012,0.2012,0.2164,0.2216,0.225,0.2226,0.2227,0.2161,0.2137,0.2096,0.2082,0.2018,0.1972,0.1992,0.2076,0.1995,0.1916,0.1881,0.1743,0.1498,0.1572,0.1977,0.2014,0.2048,0.196,0.1701,0.17,0.1033,0.1028,0.1024]},{"header":{"parameterUnit":"m.s-1","parameterCategory":2,"la1":30.2991,"la2":30.254,"lo1":-89.0895,"lo2":-89.0444,"dy":0.0017,"dx":0.0017,"nx":28,"ny":28,"refTime":"2025-03-18T03:00:00:Z","depth":"0","parameterNumber":3,"parameterNumberName":"V-component_of_CURRENTS"},"data":[0,0,0,0,0,0,0,0,0,0,0,0,0,0,0,0,0,0,0,0,0,0,0,0,0,0,0,0,0,0,0,0,0,0,0,0,0,0,0,0,0,0,0,0,0,0,0,0,0,0,0,0,0,0,0,0,0,0,0.0382,0.0382,0,0.0379,0.0379,0.0379,0.0383,0.0383,0.0384,0.0384,0.0359,0.0358,0.0357,0,0,0,0,0,0,0,0,0,0,0,0,0,0.0367,0.0368,0.0382,0.0382,0.0382,0.0379,0.0379,0.0379,0.0383,0.0383,0.0384,0.0384,0.0359,0.0358,0.0357,0,0,0,0,0,0,0,0,0,0,0,0,0,0.037,0.0368,0.0382,0.0384,0.0384,0.0379,0.0379,0.0379,0.0383,0.0383,0.0384,0.0384,0.0359,0.0358,0.0357,0.0345,0,0,0.0353,0.0353,0,0,0,0,0,0,0,0,0.037,0.0371,0.0384,0.0384,0.0384,0.0382,0.0365,0.0367,0.0383,0.0383,0.0384,0.0384,0.0364,0.0363,0.0362,0.0344,0.0343,0.0353,0.0353,0.0352,0.0352,0,0,0,0,0,0,0,0.037,0.0371,0.0381,0.0383,0.0384,0.0376,0.0377,0.0365,0.0372,0.0383,0.0384,0.0383,0.0364,0.0363,0.0361,0.0343,0.0353,0.0352,0.0352,0.0351,0.035,0.0351,0,0,0,0,0,0,0.0371,0.0371,0.0381,0.0381,0.0377,0.0377,0.0378,0.0382,0.0373,0.0372,0.0383,0.0384,0.0365,0.0363,0.036,0.0376,0.0352,0.0351,0.035,0.0349,0.035,0.0351,0,0,0,0,0,0,0.0371,0.0372,0.0381,0.0375,0.0376,0.0377,0.0382,0.0382,0.0383,0.0373,0.0372,0.0384,0.0365,0.0362,0.0356,0.0374,0.035,0.0349,0.0349,0.035,0.0351,0.0387,0,0,0,0,0,0,0.0371,0.0372,0.0375,0.0376,0.0376,0.038,0.0382,0.0382,0.0382,0.0383,0.0373,0.0371,0.0365,0.0358,0.0355,0.0372,0.0348,0.0348,0.0349,0.035,0.0385,0.0389,0.0393,0,0,0,0,0,0.037,0.0375,0.0375,0.0376,0.038,0.038,0.038,0.0381,0.0382,0.0382,0.038,0.0372,0.0365,0.0357,0.0354,0.037,0.0347,0.0349,0.035,0.0383,0.0388,0.0393,0,0,0,0,0,0,0.0371,0.0376,0.0376,0.0382,0.0381,0.0381,0.0381,0.0381,0.0379,0.038,0.0372,0.037,0.0375,0.0364,0.0356,0.0375,0.0358,0.0359,0.0384,0.0389,0.0393,0.0443,0.0347,0,0,0,0,0,0.0371,0.0377,0.0377,0.0382,0.0382,0.0381,0.038,0.0381,0.038,0.038,0.0374,0.0373,0.0378,0.0376,0.0373,0.0375,0.0374,0.0386,0.039,0.0393,0.0432,0.0442,0.0451,0.0356,0.0356,0.0356,0,0,0.0373,0.0376,0.038,0.0382,0.0382,0.0387,0.0381,0.0382,0.0396,0.0376,0.0388,0.0382,0.0381,0.039,0.0392,0.0384,0.0411,0.0395,0.0398,0.0436,0.0445,0.0454,0.0462,0.0357,0.0357,0.0357,0,0,0.0379,0.0382,0.0386,0.0386,0.0386,0.039,0.039,0.039,0.04,0.0403,0.0404,0.042,0.0401,0.0427,0.0432,0.0457,0.0431,0.0439,0.05,0.0508,0.0516,0.0524,0.0498,0.0503,0.0442,0.0442,0.0442,0,0.0379,0.0391,0.0387,0.0389,0.0402,0.0393,0.0408,0.0412,0.0412,0.0445,0.0411,0.0449,0.0433,0.0491,0.0497,0.0471,0.0452,0.0479,0.0514,0.0522,0.0529,0.0501,0.0506,0.0444,0.0444,0.0444,0.0444,0,0.0388,0.0397,0.04,0.0409,0.0419,0.0428,0.0438,0.0456,0.0462,0.0482,0.053,0.0514,0.0555,0.0536,0.052,0.0574,0.0533,0.0515,0.0504,0.0541,0.0508,0.0513,0.0447,0.0446,0.0446,0.0445,0,0,0.0399,0.0406,0.0408,0.0433,0.0436,0.0457,0.0486,0.0537,0.0601,0.0583,0.0664,0.066,0.0672,0.0682,0.0665,0.0665,0.0671,0.0611,0.061,0.0589,0.0657,0.0629,0.0631,0.0645,0.0647,0.0649,0.06,0,0.0412,0.043,0.0435,0.0478,0.0498,0.052,0.0572,0.0619,0.0649,0.0718,0.0728,0.0781,0.072,0.0745,0.0739,0.0701,0.0691,0.0685,0.0623,0.0622,0.0597,0.064,0.0679,0.064,0.0604,0.0605,0.0605,0,0.0428,0.0444,0.0474,0.0556,0.0573,0.0604,0.0718,0.0762,0.085,0.0883,0.0931,0.0929,0.0957,0.0885,0.0847,0.0837,0.0764,0.0712,0.0708,0.0689,0.0606,0.0605,0.065,0.0692,0.0612,0.0612,0.0611,0,0.0454,0.0492,0.0527,0.054,0.061,0.0664,0.0724,0.0819,0.0907,0.0991,0.1055,0.1071,0.1087,0.1016,0.0902,0.0874,0.0835,0.0782,0.0689,0.0683,0.0715,0.0711,0.081,0.0764,0.0764,0.0765,0.0765,0,0.0477,0.0515,0.0547,0.0566,0.0674,0.0712,0.0853,0.0918,0.1039,0.1161,0.1148,0.1223,0.1118,0.1074,0.0955,0.0842,0.0875,0.0728,0.069,0.0722,0.0719,0.0756,0.0726,0.0763,0.0763,0.0763,0.0764,0,0.0499,0.0504,0.0564,0.0639,0.068,0.0761,0.0932,0.1048,0.1136,0.1284,0.1316,0.1342,0.1283,0.1158,0.1037,0.0917,0.0809,0.0754,0.0782,0.0749,0.0699,0.0668,0.068,0.0691,0.0655,0.0654,0.0654,0,0.0511,0.0532,0.0613,0.0674,0.0711,0.0841,0.0957,0.1086,0.1205,0.1359,0.1435,0.1423,0.1428,0.1237,0.1043,0.0848,0.0809,0.0738,0.0711,0.0738,0.0675,0.0651,0.0659,0.0742,0.0742,0.0742,0.0743,0,0.0554,0.0571,0.0628,0.0738,0.0846,0.0979,0.1134,0.1239,0.1396,0.1511,0.1621,0.163,0.1468,0.1317,0.1056,0.0902,0.0778,0.0734,0.078,0.0785,0.0752,0.0731,0.0702,0.0744,0.0744,0.0744,0.0744,0.0744,0.06,0.0657,0.0729,0.0848,0.0956,0.1095,0.1223,0.1371,0.1548,0.1708,0.1718,0.1744,0.1584,0.1246,0.1063,0.0837,0.0784,0.0767,0.073,0.0707,0.0734,0.0695,0.0684,0.0684,0.0683,0.0683,0.0682,0,0.0668,0.0742,0.085,0.0981,0.1094,0.1141,0.1339,0.1466,0.1643,0.1747,0.1828,0.182,0.1597,0.1363,0.1075,0.0911,0.0834,0.0817,0.0837,0.0845,0.0846,0.0872,0.0883,0.0883,0.0883,0.0883,0.0883,0.0883,0.0715,0.0826,0.0888,0.1078,0.1167,0.1323,0.1428,0.1589,0.1699,0.1849,0.1909,0.196,0.1952,0.1399,0.1121,0.1005,0.0963,0.0863,0.0848,0.0898,0.0893,0.0888,0.0914,0.0934,0.0933,0.0912,0.0911,0.0911]}],[{"header":{"parameterUnit":"m.s-1","parameterCategory":2,"la1":30.2991,"la2":30.254,"lo1":-89.0895,"lo2":-89.0444,"dy":0.0017,"dx":0.0017,"nx":28,"ny":28,"refTime":"2025-03-18T03:00:00:Z","depth":"2","parameterNumber":2,"parameterNumberName":"U-component_of_CURRENTS"},"data":[0,0,0,0,0,0,0,0,0,0,0,0,0,0,0,0,0,0,0,0,0,0,0,0,0,0,0,0,0,0,0,0,0,0,0,0,0,0,0,0,0,0,0,0,0,0,0,0,0,0,0,0,0,0,0,0,0,0,0.2212,0.2212,0,0.2173,0.2172,0.2172,0.215,0.215,0.215,0.215,0.2131,0.213,0.213,0,0,0,0,0,0,0,0,0,0,0,0,0,0.2261,0.226,0.2212,0.2212,0.2211,0.2173,0.2172,0.2172,0.215,0.215,0.215,0.215,0.2131,0.213,0.213,0,0,0,0,0,0,0,0,0,0,0,0,0,0.2232,0.226,0.2212,0.2197,0.2195,0.2173,0.2172,0.2172,0.215,0.215,0.215,0.215,0.2131,0.2131,0.213,0.2123,0,0,0.2127,0.2127,0,0,0,0,0,0,0,0,0.2233,0.223,0.2199,0.2198,0.2196,0.2168,0.2183,0.2157,0.215,0.2166,0.215,0.215,0.2146,0.2144,0.2134,0.2122,0.2121,0.2127,0.2127,0.2126,0.2126,0,0,0,0,0,0,0,0.2235,0.2231,0.2195,0.2199,0.2197,0.219,0.2186,0.2178,0.2155,0.2164,0.2163,0.2161,0.2145,0.2135,0.2134,0.2121,0.2127,0.2126,0.2126,0.2126,0.2142,0.2143,0,0,0,0,0,0,0.2243,0.2233,0.2196,0.2194,0.2217,0.2189,0.2184,0.2175,0.2155,0.2152,0.2161,0.216,0.2136,0.2135,0.2133,0.2157,0.2126,0.2125,0.2125,0.2141,0.2143,0.2144,0,0,0,0,0,0,0.2244,0.224,0.2198,0.2214,0.2209,0.2188,0.2179,0.2175,0.2168,0.2152,0.2149,0.2158,0.2136,0.2134,0.2124,0.2155,0.2125,0.2124,0.214,0.2142,0.2143,0.2185,0,0,0,0,0,0,0.2245,0.224,0.2239,0.2214,0.2208,0.2189,0.2178,0.2174,0.2167,0.2165,0.2149,0.2147,0.2136,0.2125,0.2123,0.2154,0.2124,0.2139,0.2141,0.2143,0.2183,0.2188,0.2192,0,0,0,0,0,0.2247,0.2244,0.2238,0.2234,0.2205,0.2189,0.2185,0.217,0.2167,0.2164,0.215,0.2148,0.2136,0.2124,0.2122,0.2153,0.2138,0.214,0.2142,0.218,0.2187,0.2192,0,0,0,0,0,0,0.2262,0.2241,0.2234,0.2224,0.2211,0.2186,0.2183,0.2174,0.2159,0.2159,0.2144,0.2141,0.2149,0.2141,0.2129,0.2165,0.2143,0.2145,0.2173,0.2179,0.2184,0.2261,0.2123,0,0,0,0,0,0.2266,0.2258,0.2238,0.223,0.2225,0.2205,0.2198,0.2188,0.2172,0.2165,0.2152,0.2148,0.2156,0.2157,0.2153,0.2163,0.22,0.2187,0.2191,0.2196,0.2258,0.2336,0.2355,0.2151,0.2151,0.215,0,0,0.2272,0.2257,0.2255,0.2233,0.2221,0.2213,0.22,0.219,0.2191,0.2167,0.216,0.2158,0.216,0.2173,0.2179,0.2171,0.226,0.2198,0.2202,0.2263,0.2341,0.2361,0.2379,0.2152,0.2152,0.2151,0,0,0.2273,0.2265,0.2258,0.2249,0.2232,0.2221,0.2221,0.2198,0.2198,0.2185,0.2185,0.2221,0.2184,0.223,0.2241,0.2277,0.228,0.225,0.2343,0.2416,0.2435,0.2452,0.2474,0.2493,0.2257,0.2257,0.2257,0,0.2284,0.2268,0.2254,0.2244,0.2248,0.2228,0.223,0.2221,0.2199,0.2231,0.2187,0.2239,0.2234,0.2319,0.2332,0.2297,0.231,0.2314,0.2426,0.2444,0.2461,0.248,0.2501,0.2259,0.2259,0.2259,0.2259,0,0.2274,0.2269,0.2266,0.2251,0.2253,0.2251,0.2245,0.2255,0.2248,0.226,0.2323,0.2325,0.2381,0.2372,0.2361,0.2486,0.2442,0.2417,0.2417,0.2485,0.2499,0.2519,0.2263,0.2262,0.2261,0.226,0,0,0.2273,0.2265,0.2263,0.2275,0.2263,0.2269,0.2289,0.2329,0.2382,0.2371,0.2456,0.2492,0.2526,0.2548,0.2549,0.2621,0.2725,0.2574,0.2577,0.2607,0.2848,0.2702,0.2709,0.2704,0.2709,0.2713,0.2791,0,0.2271,0.2271,0.227,0.2287,0.2292,0.2313,0.2348,0.239,0.2414,0.2483,0.2545,0.2603,0.2577,0.2614,0.269,0.2726,0.279,0.2705,0.2772,0.2775,0.2646,0.2734,0.2459,0.2497,0.2811,0.2815,0.2817,0,0.225,0.226,0.2277,0.2337,0.2348,0.2365,0.2461,0.2491,0.2593,0.2625,0.2719,0.2738,0.2872,0.2812,0.2958,0.2893,0.2899,0.2911,0.2912,0.2798,0.267,0.249,0.2523,0.2852,0.2849,0.2846,0.2844,0,0.2242,0.2271,0.2295,0.2304,0.2357,0.2405,0.2454,0.2547,0.2605,0.2729,0.278,0.2913,0.297,0.3043,0.3056,0.3017,0.3179,0.3118,0.2995,0.2981,0.2782,0.2742,0.324,0.3239,0.3239,0.3239,0.3239,0,0.2226,0.2244,0.23,0.2305,0.2387,0.2429,0.253,0.26,0.2711,0.279,0.2863,0.2931,0.3031,0.31,0.3119,0.3122,0.3231,0.306,0.3021,0.2777,0.2738,0.308,0.3061,0.3242,0.3241,0.3241,0.324,0,0.219,0.2212,0.2254,0.2336,0.2369,0.2433,0.2554,0.2623,0.273,0.2831,0.2871,0.298,0.3057,0.3117,0.3222,0.3171,0.3207,0.3169,0.2849,0.2771,0.294,0.2921,0.3066,0.3062,0.3059,0.3056,0.3054,0,0.2165,0.2178,0.2272,0.2308,0.2341,0.2439,0.2499,0.262,0.2676,0.2836,0.287,0.2976,0.2993,0.3081,0.3021,0.3021,0.3137,0.2773,0.2672,0.299,0.2937,0.2924,0.291,0.2401,0.2394,0.2388,0.2383,0,0.214,0.2177,0.2228,0.2298,0.2357,0.242,0.2506,0.2547,0.2674,0.2745,0.2819,0.285,0.2865,0.2716,0.2691,0.2663,0.2755,0.2645,0.3111,0.2473,0.2366,0.2312,0.2321,0.2329,0.2334,0.2338,0.2341,0.2343,0.2139,0.2184,0.2249,0.2315,0.2355,0.2366,0.2383,0.244,0.2499,0.2515,0.2633,0.2555,0.2535,0.2321,0.2255,0.2199,0.2391,0.23,0.2318,0.2343,0.2239,0.213,0.2027,0.203,0.2034,0.2036,0.2039,0,0.2138,0.2197,0.2259,0.2306,0.2293,0.2331,0.2354,0.2316,0.2298,0.2286,0.2276,0.2013,0.1867,0.1884,0.1675,0.1657,0.1644,0.1626,0.1593,0.1647,0.1695,0.1558,0.1166,0.1163,0.1161,0.1159,0,0,0.2146,0.2203,0.2238,0.2223,0.2229,0.2164,0.2141,0.2071,0.2019,0.1854,0.1737,0.1753,0.1798,0.1448,0.1398,0.1254,0.1451,0.1202,0.1898,0.1913,0.1958,0.2073,0.192,0,0,0,0,0]},{"header":{"parameterUnit":"m.s-1","parameterCategory":2,"la1":30.2991,"la2":30.254,"lo1":-89.0895,"lo2":-89.0444,"dy":0.0017,"dx":0.0017,"nx":28,"ny":28,"refTime":"2025-03-18T03:00:00:Z","depth":"2","parameterNumber":3,"parameterNumberName":"V-component_of_CURRENTS"},"data":[0,0,0,0,0,0,0,0,0,0,0,0,0,0,0,0,0,0,0,0,0,0,0,0,0,0,0,0,0,0,0,0,0,0,0,0,0,0,0,0,0,0,0,0,0,0,0,0,0,0,0,0,0,0,0,0,0,0,0.0303,0.0303,0,0.03,0.03,0.0299,0.0306,0.0306,0.0306,0.0307,0.0284,0.0283,0.0283,0,0,0,0,0,0,0,0,0,0,0,0,0,0.0288,0.0289,0.0303,0.0303,0.0303,0.03,0.03,0.0299,0.0306,0.0306,0.0306,0.0307,0.0284,0.0283,0.0282,0,0,0,0,0,0,0,0,0,0,0,0,0,0.0291,0.0289,0.0303,0.0306,0.0306,0.03,0.03,0.0299,0.0306,0.0306,0.0306,0.0307,0.0285,0.0284,0.0282,0.0268,0,0,0.0279,0.0278,0,0,0,0,0,0,0,0,0.0291,0.0291,0.0306,0.0306,0.0306,0.0304,0.0286,0.0288,0.0306,0.0306,0.0307,0.0307,0.0289,0.0287,0.0286,0.0267,0.0266,0.0279,0.0278,0.0277,0.0277,0,0,0,0,0,0,0,0.0291,0.0291,0.0302,0.0305,0.0306,0.0298,0.0299,0.0286,0.0295,0.0306,0.0306,0.0306,0.0289,0.0287,0.0285,0.0266,0.0279,0.0277,0.0277,0.0276,0.0274,0.0275,0,0,0,0,0,0,0.0292,0.0291,0.0302,0.0302,0.0299,0.0298,0.0299,0.0304,0.0295,0.0295,0.0306,0.0306,0.0289,0.0287,0.0285,0.03,0.0277,0.0276,0.0275,0.0274,0.0275,0.0275,0,0,0,0,0,0,0.0292,0.0293,0.0302,0.0296,0.0297,0.0298,0.0303,0.0304,0.0306,0.0296,0.0295,0.0309,0.0289,0.0286,0.0282,0.0298,0.0276,0.0274,0.0273,0.0274,0.0275,0.031,0,0,0,0,0,0,0.0292,0.0294,0.0296,0.0296,0.0297,0.0301,0.0303,0.0303,0.0305,0.0306,0.0297,0.0296,0.0289,0.0284,0.028,0.0296,0.0274,0.0272,0.0273,0.0275,0.0308,0.0312,0.0316,0,0,0,0,0,0.0291,0.0296,0.0297,0.0298,0.0301,0.0301,0.0301,0.0302,0.0305,0.0306,0.0304,0.0296,0.029,0.0283,0.0279,0.0295,0.0271,0.0273,0.0275,0.0306,0.0311,0.0316,0,0,0,0,0,0,0.0292,0.0297,0.0298,0.0304,0.0303,0.0302,0.0303,0.0304,0.0303,0.0304,0.0297,0.0294,0.03,0.029,0.0282,0.0299,0.0282,0.0283,0.0308,0.0313,0.0316,0.0365,0.0273,0,0,0,0,0,0.0293,0.0298,0.0299,0.0304,0.0304,0.0303,0.0303,0.0304,0.0303,0.0304,0.0299,0.0298,0.0302,0.0301,0.0297,0.0298,0.0297,0.0309,0.0313,0.0316,0.0354,0.0361,0.0369,0.028,0.028,0.028,0,0,0.0295,0.0297,0.0301,0.0304,0.0303,0.0308,0.0304,0.0306,0.0319,0.03,0.0313,0.0306,0.0305,0.0314,0.0315,0.0308,0.0332,0.0318,0.0321,0.0358,0.0363,0.0372,0.038,0.0281,0.0281,0.0281,0,0,0.0299,0.0303,0.0308,0.0308,0.0308,0.0311,0.0313,0.0313,0.0324,0.0327,0.0328,0.0343,0.0325,0.0349,0.0354,0.0378,0.0351,0.036,0.042,0.0425,0.0433,0.044,0.0414,0.0418,0.0364,0.0364,0.0364,0,0.03,0.0311,0.0308,0.031,0.0323,0.0315,0.033,0.0334,0.0335,0.0367,0.0335,0.0371,0.0356,0.041,0.0416,0.0391,0.0372,0.0399,0.0431,0.0438,0.0445,0.0417,0.0421,0.0365,0.0365,0.0365,0.0365,0,0.0307,0.0317,0.032,0.0329,0.0338,0.0348,0.0358,0.0377,0.0384,0.0402,0.0448,0.0434,0.0472,0.0454,0.0438,0.0489,0.045,0.0431,0.0421,0.0456,0.0423,0.0427,0.0368,0.0367,0.0367,0.0366,0,0,0.0319,0.0325,0.0328,0.0353,0.0356,0.0377,0.0404,0.0454,0.0517,0.0499,0.0578,0.0573,0.0585,0.0595,0.0578,0.0577,0.058,0.0524,0.0523,0.0502,0.0562,0.0531,0.0532,0.0554,0.0556,0.0557,0.0507,0,0.0333,0.035,0.0354,0.0397,0.0417,0.0439,0.049,0.0535,0.0563,0.063,0.0639,0.069,0.0631,0.0656,0.0648,0.061,0.0598,0.0594,0.0531,0.0529,0.0501,0.054,0.0501,0.0455,0.0511,0.0512,0.0512,0,0.0349,0.0364,0.0394,0.0476,0.0494,0.0525,0.0637,0.0679,0.0762,0.0793,0.0837,0.0835,0.086,0.0791,0.0749,0.0741,0.0668,0.0616,0.0612,0.0589,0.0509,0.0436,0.046,0.0519,0.0518,0.0518,0.0517,0,0.0375,0.0414,0.0449,0.0461,0.0531,0.0585,0.0647,0.0737,0.0823,0.09,0.0961,0.0973,0.099,0.0916,0.0803,0.0776,0.0733,0.0681,0.0584,0.0578,0.0544,0.0533,0.0659,0.0659,0.0659,0.0659,0.0659,0,0.0398,0.0437,0.047,0.0488,0.0601,0.0637,0.0778,0.084,0.0956,0.1075,0.1055,0.1125,0.102,0.0975,0.0854,0.0739,0.0772,0.0621,0.0583,0.0549,0.054,0.0603,0.0597,0.0657,0.0658,0.0658,0.0659,0,0.0421,0.0425,0.0486,0.0563,0.0606,0.069,0.0862,0.0976,0.1058,0.1201,0.1232,0.1248,0.1184,0.106,0.0935,0.0812,0.07,0.0644,0.0598,0.0557,0.052,0.0516,0.054,0.0539,0.0538,0.0537,0.0537,0,0.0434,0.0455,0.0538,0.06,0.0639,0.0772,0.0891,0.1017,0.1132,0.1276,0.1349,0.1331,0.1321,0.1123,0.0909,0.0706,0.0697,0.0541,0.0502,0.0557,0.0517,0.0515,0.0512,0.0442,0.0441,0.044,0.0439,0,0.0479,0.0497,0.0555,0.0665,0.0775,0.0913,0.107,0.117,0.1322,0.1432,0.153,0.1524,0.1333,0.1109,0.0835,0.069,0.0573,0.0512,0.0605,0.0486,0.0464,0.0424,0.0425,0.0429,0.043,0.043,0.0431,0.0431,0.053,0.0589,0.0658,0.078,0.0889,0.1027,0.1157,0.1293,0.1463,0.1576,0.1587,0.1536,0.1316,0.0919,0.0704,0.0477,0.0513,0.0404,0.0408,0.0413,0.0419,0.0398,0.0349,0.0349,0.035,0.035,0.035,0,0.0586,0.0678,0.0785,0.0918,0.1014,0.1078,0.1274,0.1349,0.1505,0.1563,0.16,0.1315,0.1094,0.086,0.0509,0.032,0.0292,0.0251,0.0258,0.0269,0.0279,0.0278,0.017,0.0169,0.0168,0.0168,0,0,0.063,0.0732,0.0793,0.0979,0.1087,0.1209,0.1312,0.1403,0.1452,0.1453,0.1418,0.1346,0.1108,0.0805,0.0557,0.037,0.0358,0.0317,0.0479,0.0528,0.0539,0.0382,0.0396,0,0,0,0,0]}],[{"header":{"parameterUnit":"m.s-1","parameterCategory":2,"la1":30.2991,"la2":30.254,"lo1":-89.0895,"lo2":-89.0444,"dy":0.0017,"dx":0.0017,"nx":28,"ny":28,"refTime":"2025-03-18T03:00:00:Z","depth":"4","parameterNumber":2,"parameterNumberName":"U-component_of_CURRENTS"},"data":[0,0,0,0,0,0,0,0,0,0,0,0,0,0,0,0,0,0,0,0,0,0,0,0,0,0,0,0,0,0,0,0,0,0,0,0,0,0,0,0,0,0,0,0,0,0,0,0,0,0,0,0,0,0,0,0,0,0,0.1168,0.1168,0,0.1163,0.1163,0.1162,0.1161,0.1161,0.1162,0.1162,0.1193,0.1193,0.1194,0,0,0,0,0,0,0,0,0,0,0,0,0,0.1154,0.1154,0.1168,0.1168,0.1168,0.1163,0.1163,0.1162,0.1161,0.1161,0.1162,0.1162,0.1193,0.1193,0.1194,0,0,0,0,0,0,0,0,0,0,0,0,0,0.1152,0.1154,0.1167,0.117,0.117,0.1163,0.1163,0.1162,0.1161,0.1161,0.1162,0.1163,0.1193,0.1193,0.1194,0.1186,0,0,0.1196,0.1196,0,0,0,0,0,0,0,0,0.1152,0.1152,0.1169,0.117,0.117,0.1167,0.1169,0.1173,0.1161,0.116,0.1162,0.1163,0.119,0.1191,0.1182,0.1188,0.1189,0.1196,0.1197,0.1197,0.1197,0,0,0,0,0,0,0,0.1152,0.1152,0.1162,0.117,0.117,0.1164,0.1164,0.117,0.1169,0.116,0.1161,0.1167,0.119,0.1181,0.1183,0.1189,0.1196,0.1197,0.1197,0.1197,0.1246,0.1247,0,0,0,0,0,0,0.1162,0.1152,0.1162,0.1162,0.1167,0.1165,0.1164,0.1164,0.1168,0.1171,0.1166,0.1167,0.118,0.1182,0.1184,0.1246,0.1197,0.1198,0.1198,0.1245,0.1246,0.1247,0,0,0,0,0,0,0.1161,0.1162,0.1162,0.1161,0.1161,0.1165,0.1164,0.1164,0.1181,0.1173,0.1176,0.1188,0.1181,0.1183,0.1188,0.1245,0.1198,0.1198,0.1244,0.1245,0.1246,0.1325,0,0,0,0,0,0,0.1161,0.1162,0.1176,0.1161,0.1161,0.1165,0.1164,0.1163,0.1184,0.1185,0.1192,0.1194,0.1181,0.1187,0.1189,0.1245,0.1199,0.1243,0.1244,0.1246,0.1321,0.1329,0.1335,0,0,0,0,0,0.116,0.1169,0.1176,0.1178,0.1176,0.1166,0.1165,0.1167,0.1185,0.1186,0.1185,0.1195,0.12,0.1187,0.119,0.1247,0.1242,0.1244,0.1246,0.1318,0.1327,0.1335,0,0,0,0,0,0,0.1168,0.117,0.1177,0.1187,0.1184,0.1168,0.1178,0.1184,0.1185,0.12,0.1191,0.1191,0.1226,0.1213,0.12,0.1264,0.123,0.1232,0.1284,0.1293,0.1299,0.1337,0.12,0,0,0,0,0,0.1179,0.1188,0.1183,0.1194,0.1196,0.1196,0.12,0.1204,0.12,0.1202,0.1211,0.122,0.1231,0.1241,0.1245,0.1269,0.1288,0.1311,0.1318,0.1324,0.1354,0.1402,0.1417,0.1253,0.1253,0.1253,0,0,0.1183,0.119,0.1194,0.1198,0.1199,0.1198,0.1199,0.1213,0.1235,0.1207,0.1246,0.1248,0.1242,0.1271,0.1287,0.127,0.1379,0.1326,0.1332,0.136,0.1406,0.1422,0.1437,0.1255,0.1254,0.1254,0,0,0.1191,0.1206,0.1214,0.1214,0.1228,0.1223,0.1235,0.124,0.127,0.1291,0.129,0.1316,0.1327,0.1338,0.1342,0.1389,0.1416,0.1404,0.1474,0.1519,0.1534,0.1547,0.1594,0.1611,0.1406,0.1407,0.1407,0,0.1207,0.1206,0.1214,0.122,0.1225,0.1238,0.1242,0.1269,0.1283,0.1317,0.1316,0.1367,0.1363,0.1411,0.1433,0.1411,0.1444,0.1443,0.1532,0.1545,0.1557,0.1602,0.162,0.1411,0.141,0.141,0.1409,0,0.1203,0.1215,0.122,0.123,0.1237,0.1243,0.1273,0.1297,0.1337,0.1378,0.1455,0.1455,0.1497,0.1499,0.1484,0.1577,0.1575,0.1537,0.1517,0.1579,0.1622,0.1639,0.1416,0.1415,0.1414,0.1413,0,0,0.1207,0.1216,0.1221,0.1214,0.1245,0.1232,0.1287,0.1329,0.1402,0.1441,0.1537,0.1564,0.1618,0.1628,0.1632,0.1668,0.1778,0.1658,0.1658,0.1718,0.1903,0.1677,0.1674,0.1766,0.1769,0.1772,0.1899,0,0.1204,0.1195,0.1219,0.1213,0.1199,0.1233,0.1244,0.1299,0.1432,0.1534,0.1587,0.1691,0.1659,0.1718,0.1752,0.1767,0.1828,0.1749,0.1823,0.1826,0.1628,0.1687,0.1782,0.1912,0.1916,0.1918,0.192,0,0.1194,0.118,0.1172,0.1155,0.1153,0.1178,0.1252,0.1287,0.1451,0.1566,0.1724,0.1812,0.1901,0.1872,0.1953,0.1912,0.1943,0.1942,0.1945,0.1724,0.1631,0.1834,0.1951,0.1949,0.1946,0.1944,0.1942,0,0.1148,0.1151,0.1134,0.1133,0.1116,0.1152,0.1174,0.1316,0.1393,0.1679,0.1786,0.1932,0.1994,0.2058,0.2045,0.2049,0.2102,0.2099,0.1932,0.1918,0.2051,0.2036,0.2199,0.2199,0.2198,0.2198,0.2198,0,0.112,0.1109,0.1122,0.111,0.1061,0.1115,0.1204,0.1273,0.1478,0.1556,0.1824,0.1907,0.2048,0.2082,0.2102,0.2023,0.2149,0.1969,0.1937,0.2079,0.2065,0.2064,0.2046,0.2203,0.2202,0.2201,0.22,0,0.1062,0.1081,0.1006,0.1006,0.1042,0.0996,0.1162,0.1251,0.1453,0.1598,0.1681,0.191,0.1961,0.2035,0.2115,0.2042,0.2029,0.1978,0.2123,0.2093,0.1833,0.1819,0.1885,0.1879,0.1873,0.1868,0.1864,0,0.1036,0.1004,0.0919,0.0893,0.0924,0.0966,0.1014,0.1211,0.1336,0.153,0.1544,0.1717,0.1825,0.179,0.1872,0.192,0.1884,0.1897,0.1896,0.184,0.1804,0.1798,0.1791,0.1855,0.1853,0.1851,0.185,0,0.092,0.0867,0.0758,0.0743,0.0781,0.0811,0.0933,0.0993,0.1164,0.1367,0.1445,0.1542,0.1582,0.1676,0.1699,0.1715,0.1902,0.1837,0.1852,0.1852,0.1803,0.1771,0.1772,0.183,0.1833,0.1835,0.1836,0,0.0793,0.0627,0.0527,0.0502,0.0572,0.0637,0.0711,0.0845,0.0949,0.1184,0.1172,0.1352,0.1519,0.1561,0.1553,0.157,0.1599,0.1581,0.161,0.1633,0.1481,0.1378,0.1265,0,0,0,0,0,0.064,0.0448,0.0375,0.0279,0.0403,0.0489,0.064,0.0739,0.0906,0.0922,0.1067,0.1116,0.1216,0.1321,0.13,0.1415,0.1563,0.1378,0.1546,0.1718,0.1741,0.1579,0,0,0,0,0,0,0.051,0.0336,0.0247,0.02,0.021,0.0322,0.0427,0.0531,0.0574,0.0763,0.0849,0.1015,0.1147,0.1211,0.1268,0.1291,0.1365,0.1499,0.1495,0.1705,0.1726,0.1745,0.1586,0,0,0,0,0]},{"header":{"parameterUnit":"m.s-1","parameterCategory":2,"la1":30.2991,"la2":30.254,"lo1":-89.0895,"lo2":-89.0444,"dy":0.0017,"dx":0.0017,"nx":28,"ny":28,"refTime":"2025-03-18T03:00:00:Z","depth":"4","parameterNumber":3,"parameterNumberName":"V-component_of_CURRENTS"},"data":[0,0,0,0,0,0,0,0,0,0,0,0,0,0,0,0,0,0,0,0,0,0,0,0,0,0,0,0,0,0,0,0,0,0,0,0,0,0,0,0,0,0,0,0,0,0,0,0,0,0,0,0,0,0,0,0,0,0,-0.0005,-0.0005,0,-0.0006,-0.0006,-0.0006,-0.0001,-0.0001,-0.0001,-0.0001,-0.0028,-0.0029,-0.003,0,0,0,0,0,0,0,0,0,0,0,0,0,-0.0017,-0.0016,-0.0005,-0.0005,-0.0005,-0.0006,-0.0006,-0.0006,-0.0001,-0.0001,-0.0001,-0.0001,-0.0028,-0.0029,-0.003,0,0,0,0,0,0,0,0,0,0,0,0,0,-0.0014,-0.0016,-0.0005,-0.0003,-0.0003,-0.0006,-0.0006,-0.0006,-0.0001,-0.0001,-0.0001,-0.0,-0.0027,-0.0028,-0.003,-0.0042,0,0,-0.0034,-0.0034,0,0,0,0,0,0,0,0,-0.0014,-0.0014,-0.0003,-0.0003,-0.0003,-0.0003,-0.002,-0.0019,-0.0001,-0.0002,-0.0001,-0.0,-0.0022,-0.0024,-0.0024,-0.0044,-0.0045,-0.0034,-0.0035,-0.0035,-0.0036,0,0,0,0,0,0,0,-0.0014,-0.0014,-0.0006,-0.0003,-0.0003,-0.0007,-0.0007,-0.002,-0.0014,-0.0002,-0.0001,-0.0001,-0.0022,-0.0023,-0.0025,-0.0045,-0.0034,-0.0035,-0.0036,-0.0036,-0.0054,-0.0053,0,0,0,0,0,0,-0.0013,-0.0014,-0.0006,-0.0006,-0.0008,-0.0007,-0.0006,-0.0003,-0.0013,-0.0014,-0.0001,-0.0001,-0.0021,-0.0023,-0.0026,-0.0024,-0.0035,-0.0036,-0.0037,-0.0054,-0.0053,-0.0053,0,0,0,0,0,0,-0.0013,-0.0012,-0.0006,-0.001,-0.0009,-0.0007,-0.0004,-0.0003,-0.0,-0.0013,-0.0014,0.0002,-0.0021,-0.0024,-0.0029,-0.0026,-0.0037,-0.0038,-0.0054,-0.0054,-0.0053,-0.0032,0,0,0,0,0,0,-0.0014,-0.0012,-0.0011,-0.001,-0.0009,-0.0007,-0.0004,-0.0004,-0.0001,-0.0,-0.0011,-0.0013,-0.0021,-0.0027,-0.003,-0.0028,-0.0039,-0.0055,-0.0054,-0.0053,-0.0033,-0.0031,-0.0029,0,0,0,0,0,-0.0014,-0.0014,-0.001,-0.0009,-0.0006,-0.0007,-0.0008,-0.0006,-0.0001,-0.0002,-0.0002,-0.0012,-0.0025,-0.0028,-0.0032,-0.003,-0.0055,-0.0054,-0.0053,-0.0034,-0.0031,-0.0029,0,0,0,0,0,0,-0.0021,-0.0014,-0.0009,-0.0008,-0.0007,-0.0007,-0.0008,-0.0004,-0.0004,-0.0002,-0.0011,-0.0013,-0.0015,-0.0025,-0.0028,-0.0032,-0.0041,-0.0041,-0.0025,-0.0023,-0.0021,-0.0007,-0.004,0,0,0,0,0,-0.0021,-0.0017,-0.0013,-0.0012,-0.0011,-0.0007,-0.0007,-0.0004,-0.0004,-0.0004,-0.0008,-0.0012,-0.0016,-0.0021,-0.0027,-0.0034,-0.0039,-0.0034,-0.0032,-0.003,-0.0022,-0.0028,-0.0026,-0.0051,-0.0051,-0.0051,0,0,-0.0024,-0.0019,-0.0017,-0.0013,-0.0011,-0.0007,-0.0007,-0.0005,0.0003,-0.0008,0.0,-0.0006,-0.0015,-0.0017,-0.0019,-0.0026,-0.0026,-0.0029,-0.0028,-0.002,-0.0027,-0.0025,-0.0022,-0.005,-0.005,-0.005,0,0,-0.0028,-0.0022,-0.002,-0.0018,-0.0013,-0.0008,-0.0006,-0.0001,0.0005,0.0011,0.0008,0.0006,-0.0001,-0.0006,-0.001,-0.0002,-0.0013,-0.0004,0.0014,0.0008,0.001,0.0011,0.0007,0.0008,-0.0005,-0.0005,-0.0005,0,-0.003,-0.0023,-0.0021,-0.0018,-0.0014,-0.0007,-0.0002,0.0005,0.001,0.0019,0.0017,0.0019,0.0005,0.0007,0.0013,0.0002,0.0001,0.0004,0.001,0.0012,0.0013,0.0009,0.001,-0.0004,-0.0004,-0.0004,-0.0004,0,-0.0031,-0.0024,-0.0024,-0.0012,-0.0011,-0.0005,0.0005,0.0007,0.0018,0.0037,0.0048,0.0036,0.0044,0.0031,0.0025,0.003,0.0027,0.0015,0.0004,0.0017,0.0011,0.0012,-0.0002,-0.0003,-0.0003,-0.0003,0,0,-0.0029,-0.0025,-0.0023,-0.0018,-0.0004,-0.0004,0.0004,0.0021,0.0048,0.0048,0.0079,0.0064,0.008,0.0077,0.0066,0.0052,0.0055,0.0043,0.0042,0.004,0.0048,0.0025,0.0023,0.0047,0.0047,0.0048,0.004,0,-0.0025,-0.0018,-0.0018,-0.0009,0.0001,-0.0001,0.0002,0.0018,0.006,0.0094,0.0088,0.0126,0.0095,0.0114,0.0093,0.0065,0.0059,0.0059,0.0036,0.0035,0.0013,0.0023,0.0049,0.004,0.004,0.004,0.004,0,-0.0018,-0.001,-0.0003,-0.0004,-0.0004,-0.0003,0.0022,0.0026,0.0075,0.0109,0.0149,0.0189,0.0181,0.0161,0.0114,0.0119,0.0097,0.0066,0.0065,0.0038,0.0013,0.0024,0.0041,0.0041,0.0041,0.0041,0.0041,0,-0.0006,-0.0002,0.0005,0.0008,0.0008,-0.0001,-0.001,0.0034,0.0053,0.0146,0.0203,0.0216,0.0232,0.0192,0.0146,0.0144,0.0088,0.0077,0.0035,0.0033,0.0047,0.0045,0.0063,0.0063,0.0063,0.0063,0.0063,0,0.0005,0.0011,0.0009,0.0015,0.0025,0.0001,0.0026,0.0046,0.0077,0.0142,0.0217,0.0276,0.0244,0.023,0.0169,0.0094,0.0107,0.0045,0.0031,0.0056,0.0055,0.0047,0.0046,0.0063,0.0063,0.0063,0.0063,0,0.0017,0.0018,0.0034,0.0032,0.0037,0.0037,0.0031,0.0076,0.0092,0.0184,0.0221,0.0303,0.0301,0.0253,0.0192,0.0128,0.0057,0.0034,0.0068,0.0054,0.0006,0.0006,-0.0,-0.0001,-0.0002,-0.0002,-0.0003,0,0.0025,0.0031,0.0056,0.01,0.0104,0.01,0.0129,0.0103,0.0169,0.0208,0.0279,0.0309,0.0363,0.0259,0.0179,0.0068,0.0049,0.0016,0.0013,0.0014,0.0001,0.0001,0.0002,-0.0004,-0.0004,-0.0005,-0.0005,0,0.0041,0.0047,0.0072,0.0178,0.0227,0.0254,0.0285,0.0276,0.0273,0.0304,0.0369,0.0354,0.0349,0.028,0.0195,0.0106,0.0033,0.0009,0.001,0.0007,0.0009,-0.0003,-0.0002,-0.0007,-0.0007,-0.0007,-0.0007,0,0.0064,0.0102,0.017,0.0269,0.034,0.0393,0.0362,0.0408,0.0405,0.0413,0.0425,0.0413,0.0405,0.0299,0.0205,0.0125,0.0109,0.0081,0.0078,0.008,0.0092,0.0106,0.0114,0,0,0,0,0,0.0077,0.0156,0.027,0.036,0.0429,0.0478,0.0498,0.0458,0.0411,0.0484,0.0434,0.044,0.0334,0.0298,0.0221,0.0168,0.0072,0.007,0.0032,-0.0021,-0.0018,-0.0022,0,0,0,0,0,0,0.0109,0.0189,0.0292,0.0435,0.0499,0.0574,0.0573,0.0538,0.055,0.05,0.0463,0.0431,0.0342,0.0404,0.0235,0.0206,0.0169,0.0024,0.0022,-0.0023,-0.002,-0.0018,-0.002,0,0,0,0,0]}]]